SB KEPS @ AMSAT $ORB09141.O Orbital Elements 09141.OSCAR
HR AMSAT ORBITAL ELEMENTS FOR OSCAR SATELLITES FROM WA5QGD FORT WORTH,TX May 21, 2009 Send Subscribe/unsubscribe to KEPS at http://www.amsat.org/mailman/listinfo/keps BID: ORB09141.O TO ALL RADIO AMATEURS BT
Satellite: AO-07 Catalog number: 07530 Epoch time: 09141.51321670 Element set: 483 Inclination: 101.4280 deg RA of node: 167.1677 deg Eccentricity: 0.0011499 Arg of perigee: 321.5723 deg Mean anomaly: 038.4534 deg Mean motion: 12.53575780 rev/day Decay rate: -2.7e-07 rev/day^2 Epoch rev: 57937 Checksum: 297
Satellite: FO-29 Catalog number: 24278 Epoch time: 09141.82448630 Element set: 46 Inclination: 098.5581 deg RA of node: 019.4013 deg Eccentricity: 0.0351322 Arg of perigee: 058.7636 deg Mean anomaly: 304.7427 deg Mean motion: 13.52943770 rev/day Decay rate: -1.7e-07 rev/day^2 Epoch rev: 63018 Checksum: 305
Satellite: SO-33 Catalog number: 25509 Epoch time: 09140.51715838 Element set: 457 Inclination: 031.4297 deg RA of node: 208.9503 deg Eccentricity: 0.0354048 Arg of perigee: 096.6798 deg Mean anomaly: 267.4253 deg Mean motion: 14.28250825 rev/day Decay rate: -1.66e-06 rev/day^2 Epoch rev: 55187 Checksum: 333
Satellite: RS-22 Catalog number: 27939 Epoch time: 09140.77866679 Element set: 0795 Inclination: 097.9493 deg RA of node: 016.6412 deg Eccentricity: 0.0012870 Arg of perigee: 215.6304 deg Mean anomaly: 144.4040 deg Mean motion: 14.63316865 rev/day Decay rate: 5.3e-07 rev/day^2 Epoch rev: 30156 Checksum: 319
Satellite: VO-52 Catalog number: 28650 Epoch time: 09141.50766749 Element set: 228 Inclination: 097.7436 deg RA of node: 203.9687 deg Eccentricity: 0.0028289 Arg of perigee: 115.6308 deg Mean anomaly: 244.7818 deg Mean motion: 14.81585062 rev/day Decay rate: 2.6e-07 rev/day^2 Epoch rev: 21869 Checksum: 342
/EX SB KEPS @ AMSAT $ORB09141.D Orbital Elements 09141.MICROS
HR AMSAT ORBITAL ELEMENTS FOR THE MICROSATS FROM WA5QGD FORT WORTH,TX May 21, 2009 Send Subscribe/unsubscribe to KEPS at http://www.amsat.org/mailman/listinfo/keps BID: ORB09141.D TO ALL RADIO AMATEURS BT
Satellite: AO-16 Catalog number: 20439 Epoch time: 09141.50938267 Element set: 609 Inclination: 098.2759 deg RA of node: 111.1279 deg Eccentricity: 0.0009928 Arg of perigee: 250.8963 deg Mean anomaly: 109.1154 deg Mean motion: 14.31824282 rev/day Decay rate: 1.5e-07 rev/day^2 Epoch rev: 933 Checksum: 306
Satellite: LO-19 Catalog number: 20442 Epoch time: 09140.66241990 Element set: 0530 Inclination: 098.2399 deg RA of node: 117.6894 deg Eccentricity: 0.0010922 Arg of perigee: 247.2756 deg Mean anomaly: 112.7281 deg Mean motion: 14.32060036 rev/day Decay rate: 2.7e-07 rev/day^2 Epoch rev: 00937 Checksum: 290
Satellite: AO-27 Catalog number: 22825 Epoch time: 09140.77325857 Element set: 246 Inclination: 098.4332 deg RA of node: 095.0621 deg Eccentricity: 0.0008329 Arg of perigee: 351.9217 deg Mean anomaly: 008.1829 deg Mean motion: 14.29265349 rev/day Decay rate: -8.4e-07 rev/day^2 Epoch rev: 81599 Checksum: 329
Satellite: IO-26 Catalog number: 22826 Epoch time: 09141.39822891 Element set: 973 Inclination: 098.4272 deg RA of node: 096.4275 deg Eccentricity: 0.0008799 Arg of perigee: 345.7731 deg Mean anomaly: 014.3203 deg Mean motion: 14.29517637 rev/day Decay rate: 1.4e-07 rev/day^2 Epoch rev: 81618 Checksum: 330
Satellite: GO-32 Catalog number: 25397 Epoch time: 09140.58281978 Element set: 0898 Inclination: 098.3277 deg RA of node: 164.4009 deg Eccentricity: 0.0001017 Arg of perigee: 025.6337 deg Mean anomaly: 334.4886 deg Mean motion: 14.23158955 rev/day Decay rate: 3.1e-07 rev/day^2 Epoch rev: 56420 Checksum: 324
Satellite: NO-44 Catalog number: 26931 Epoch time: 09141.48874922 Element set: 173 Inclination: 067.0503 deg RA of node: 133.1261 deg Eccentricity: 0.0005576 Arg of perigee: 271.9054 deg Mean anomaly: 088.1448 deg Mean motion: 14.29556794 rev/day Decay rate: 8.6e-07 rev/day^2 Epoch rev: 39876 Checksum: 331
Satellite: SO-50 Catalog number: 27607 Epoch time: 09140.73038302 Element set: 0890 Inclination: 064.5570 deg RA of node: 108.4791 deg Eccentricity: 0.0070127 Arg of perigee: 211.9836 deg Mean anomaly: 147.6985 deg Mean motion: 14.71436291 rev/day Decay rate: -4.0e-08 rev/day^2 Epoch rev: 34463 Checksum: 303
Satellite: CO-55 Catalog number: 27844 Epoch time: 09141.58071482 Element set: 583 Inclination: 098.7118 deg RA of node: 151.1226 deg Eccentricity: 0.0009074 Arg of perigee: 218.0738 deg Mean anomaly: 141.9800 deg Mean motion: 14.20637822 rev/day Decay rate: 2.7e-07 rev/day^2 Epoch rev: 30548 Checksum: 300
Satellite: CO-57 Catalog number: 27848 Epoch time: 09141.55453739 Element set: 530 Inclination: 098.7150 deg RA of node: 150.1586 deg Eccentricity: 0.0008990 Arg of perigee: 221.9260 deg Mean anomaly: 138.1242 deg Mean motion: 14.20439940 rev/day Decay rate: 2.8e-07 rev/day^2 Epoch rev: 30544 Checksum: 303
Satellite: AO-51 Catalog number: 28375 Epoch time: 09141.57180041 Element set: 393 Inclination: 098.0531 deg RA of node: 152.7281 deg Eccentricity: 0.0082897 Arg of perigee: 205.6555 deg Mean anomaly: 154.0512 deg Mean motion: 14.40642135 rev/day Decay rate: 1.1e-07 rev/day^2 Epoch rev: 25712 Checksum: 279
Satellite: CO-56 Catalog number: 28941 Epoch time: 09141.54228669 Element set: 93 Inclination: 098.1367 deg RA of node: 311.0467 deg Eccentricity: 0.0093261 Arg of perigee: 232.4060 deg Mean anomaly: 126.8708 deg Mean motion: 15.81242167 rev/day Decay rate: 4.8837e-04 rev/day^2 Epoch rev: 18303 Checksum: 320
Satellite: GENESAT1 Catalog number: 29655 Epoch time: 09140.94327536 Element set: 0724 Inclination: 040.0254 deg RA of node: 353.9597 deg Eccentricity: 0.0003007 Arg of perigee: 288.0314 deg Mean anomaly: 072.0175 deg Mean motion: 15.65075849 rev/day Decay rate: 1.2083e-04 rev/day^2 Epoch rev: 13820 Checksum: 293
Satellite: CP3 Catalog number: 31129 Epoch time: 09141.64390494 Element set: 941 Inclination: 097.9937 deg RA of node: 195.9905 deg Eccentricity: 0.0102664 Arg of perigee: 008.2224 deg Mean anomaly: 352.0621 deg Mean motion: 14.52131207 rev/day Decay rate: 7.8e-07 rev/day^2 Epoch rev: 11103 Checksum: 282
Satellite: CO-65 Catalog number: 32785 Epoch time: 09140.29820262 Element set: 0370 Inclination: 097.9446 deg RA of node: 204.4922 deg Eccentricity: 0.0016058 Arg of perigee: 119.9168 deg Mean anomaly: 240.3638 deg Mean motion: 14.81482788 rev/day Decay rate: 2.75e-06 rev/day^2 Epoch rev: 05731 Checksum: 325
Satellite: KKS-1 Catalog number: 33493 Epoch time: 09141.74385040 Element set: 400 Inclination: 098.0549 deg RA of node: 253.8413 deg Eccentricity: 0.0019657 Arg of perigee: 330.9616 deg Mean anomaly: 029.0507 deg Mean motion: 14.80669085 rev/day Decay rate: 3.05e-06 rev/day^2 Epoch rev: 1755 Checksum: 296
Satellite: SOHLA-1 Catalog number: 33496 Epoch time: 09141.69372747 Element set: 362 Inclination: 098.0361 deg RA of node: 251.4181 deg Eccentricity: 0.0007164 Arg of perigee: 017.7776 deg Mean anomaly: 342.3688 deg Mean motion: 14.69434132 rev/day Decay rate: 4.5e-07 rev/day^2 Epoch rev: 1738 Checksum: 309
/EX SB KEPS @ AMSAT $ORB09141.W Orbital Elements 09141.WEATHER
HR AMSAT ORBITAL ELEMENTS FOR WEATHER SATELLITES FROM WA5QGD FORT WORTH,TX May 21, 2009 Send Subscribe/unsubscribe to KEPS at http://www.amsat.org/mailman/listinfo/keps BID: ORB09141.W TO ALL RADIO AMATEURS BT
Satellite: NOAA-10 Catalog number: 16969 Epoch time: 09140.60867907 Element set: 0620 Inclination: 098.6925 deg RA of node: 167.4044 deg Eccentricity: 0.0011471 Arg of perigee: 279.1731 deg Mean anomaly: 080.8146 deg Mean motion: 14.27386458 rev/day Decay rate: -6.0e-08 rev/day^2 Epoch rev: 17957 Checksum: 329
Satellite: NOAA-11 Catalog number: 19531 Epoch time: 09140.76949693 Element set: 0629 Inclination: 098.7833 deg RA of node: 231.1450 deg Eccentricity: 0.0011455 Arg of perigee: 182.8679 deg Mean anomaly: 177.2417 deg Mean motion: 14.14895255 rev/day Decay rate: -1.94e-06 rev/day^2 Epoch rev: 06564 Checksum: 335
Satellite: NOAA-12 Catalog number: 21263 Epoch time: 09140.94513760 Element set: 0145 Inclination: 098.7709 deg RA of node: 148.9935 deg Eccentricity: 0.0011534 Arg of perigee: 222.3613 deg Mean anomaly: 137.6677 deg Mean motion: 14.25578845 rev/day Decay rate: 1.5e-07 rev/day^2 Epoch rev: 93651 Checksum: 315
Satellite: MET-3/5 Catalog number: 21655 Epoch time: 09140.95227752 Element set: 0620 Inclination: 082.5513 deg RA of node: 225.7286 deg Eccentricity: 0.0012226 Arg of perigee: 248.7452 deg Mean anomaly: 111.2365 deg Mean motion: 13.17019248 rev/day Decay rate: 5.1e-07 rev/day^2 Epoch rev: 85404 Checksum: 282
Satellite: MET-2/21 Catalog number: 22782 Epoch time: 09140.77220390 Element set: 0463 Inclination: 082.5485 deg RA of node: 203.7515 deg Eccentricity: 0.0023994 Arg of perigee: 065.3541 deg Mean anomaly: 295.0113 deg Mean motion: 13.83635404 rev/day Decay rate: -9.4e-07 rev/day^2 Epoch rev: 79381 Checksum: 300
Satellite: OKEAN-4 Catalog number: 23317 Epoch time: 09140.83530372 Element set: 0914 Inclination: 082.5397 deg RA of node: 000.0148 deg Eccentricity: 0.0023929 Arg of perigee: 093.6042 deg Mean anomaly: 266.7907 deg Mean motion: 14.82695878 rev/day Decay rate: -3.3e-07 rev/day^2 Epoch rev: 78831 Checksum: 315
Satellite: NOAA-14 Catalog number: 23455 Epoch time: 09141.63095039 Element set: 624 Inclination: 098.9095 deg RA of node: 219.3992 deg Eccentricity: 0.0008612 Arg of perigee: 266.2601 deg Mean anomaly: 093.8063 deg Mean motion: 14.13762998 rev/day Decay rate: -1.1e-07 rev/day^2 Epoch rev: 74226 Checksum: 315
Satellite: NOAA-15 Catalog number: 25338 Epoch time: 09140.80490504 Element set: 0931 Inclination: 098.5823 deg RA of node: 130.6147 deg Eccentricity: 0.0011501 Arg of perigee: 134.2497 deg Mean anomaly: 225.9624 deg Mean motion: 14.24759831 rev/day Decay rate: 2.0e-08 rev/day^2 Epoch rev: 57287 Checksum: 296
